VR2R-13 Weather Reports


Display with metric or nautical units.
time (UTC)temp
F
wind
direction
speed
MPH
gust
MPH
rain 1hr
in
rain 24hr
in
rain mn
in
humidity
%
barometer
mb
20260904095557 68 274 2.0 4.0 0.00 0.00 0.00 95 907.7
20260904095258 68 217 2.0 3.0 0.00 0.00 0.00 95 907.6
20260904095057 68 272 1.0 3.0 0.00 0.00 0.00 95 907.7
20260904094658 68 233 2.0 3.0 0.00 0.00 0.00 95 907.6
20260904094558 68 239 2.0 3.0 0.00 0.00 0.00 96 907.7
20260904094058 68 228 2.0 4.0 0.00 0.00 0.00 95 907.7
20260904093458 68 218 2.0 3.0 0.00 0.00 0.00 95 907.6
20260904093057 68 226 0.0 2.0 0.00 0.00 0.00 96 907.6
20260904092858 68 224 2.0 4.0 0.00 0.00 0.00 95 907.6
20260904092557 69 269 2.0 4.0 0.00 0.00 0.00 95 907.5
20260904092258 69 224 1.0 3.0 0.00 0.00 0.00 95 907.5
20260904092057 69 246 1.0 3.0 0.00 0.00 0.00 95 907.5
20260904091658 69 232 1.0 3.0 0.00 0.00 0.00 95 907.5
20260904091558 69 262 1.0 3.0 0.00 0.00 0.00 95 907.5
20260904091058 69 206 2.0 4.0 0.00 0.00 0.00 95 907.4
20260904091056 69 199 2.0 4.0 0.00 0.00 0.00 95 907.5
20260904090557 69 220 2.0 4.0 0.00 0.00 0.00 95 907.4
20260904090458 69 254 2.0 4.0 0.00 0.00 0.00 95 907.4
20260904090056 69 277 2.0 4.0 0.00 0.00 0.00 95 907.3
20260904085556 69 297 3.0 5.0 0.00 0.00 0.00 95 907.3
20260904085258 69 258 4.0 5.0 0.00 0.00 0.00 95 907.3
20260904085056 69 251 1.0 5.0 0.00 0.00 0.00 95 907.2
20260904084658 69 244 3.0 6.0 0.00 0.00 0.00 95 907.2
20260904084556 69 226 3.0 6.0 0.00 0.00 0.00 95 907.2
20260904084058 69 230 3.0 6.0 0.00 0.00 0.00 94 907.2
20260904083556 69 211 3.0 5.0 0.00 0.00 0.00 94 907.2
20260904083458 69 259 3.0 5.0 0.00 0.00 0.00 94 907.2
20260904083056 69 227 2.0 6.0 0.00 0.00 0.00 94 907.1
20260904082858 68 234 3.0 7.0 0.00 0.00 0.00 94 907.1
20260904082556 68 230 3.0 7.0 0.00 0.00 0.00 93 907.1
20260904082257 68 251 5.0 7.0 0.00 0.00 0.00 93 907.0
20260904081658 69 219 1.0 6.0 0.00 0.00 0.00 93 907.1
20260904081556 69 230 4.0 6.0 0.00 0.00 0.00 93 907.0
20260904081058 69 225 2.0 3.0 0.00 0.00 0.00 93 907.0
20260904081056 69 222 2.0 3.0 0.00 0.00 0.00 93 907.0
20260904080556 69 203 1.0 2.0 0.00 0.00 0.00 92 907.0
20260904080458 69 207 0.0 2.0 0.00 0.00 0.00 92 907.0
20260904080056 70 220 2.0 3.0 0.00 0.00 0.00 92 907.1
20260904075857 70 207 1.0 2.0 0.00 0.00 0.00 92 907.0
20260904075556 70 208 0.0 2.0 0.00 0.00 0.00 92 907.0
20260904075257 70 258 1.0 3.0 0.00 0.00 0.00 92 907.0
20260904075056 71 225 1.0 3.0 0.00 0.00 0.00 91 907.0
20260904074700 71 175 1.0 3.0 0.00 0.00 0.00 91 906.9
20260904074556 71 221 1.0 3.0 0.00 0.00 0.00 91 907.0
20260904074056 71 220 2.0 3.0 0.00 0.00 0.00 91 906.9
20260904073556 72 225 0.0 0.0 0.00 0.00 0.00 91 906.9
20260904073457 72 193 1.0 6.0 0.00 0.00 0.00 90 906.9
20260904073056 72 180 1.0 6.0 0.00 0.00 0.00 91 907.0
20260904072857 72 147 2.0 6.0 0.00 0.00 0.00 91 907.0
20260904072556 72 118 2.0 6.0 0.00 0.00 0.00 91 907.0
20260904072257 72 194 1.0 3.0 0.00 0.00 0.00 91 907.0
20260904072056 72 166 0.0 1.0 0.00 0.00 0.00 91 907.0
20260904071657 72 320 0.0 1.0 0.00 0.00 0.00 91 906.9
20260904071556 72 115 0.0 0.0 0.00 0.00 0.00 91 906.9
20260904071057 71 138 0.0 0.0 0.00 0.00 0.00 92 906.9
20260904071055 71 156 0.0 0.0 0.00 0.00 0.00 92 906.9
20260904065556 72 243 0.0 2.0 0.00 0.00 0.00 91 906.9
20260904064057 71 222 1.0 4.0 0.00 0.00 0.00 91 906.9
20260904064055 71 224 1.0 4.0 0.00 0.00 0.00 91 906.9
20260904063555 71 296 2.0 4.0 0.00 0.00 0.00 92 906.9
20260904063457 71 249 2.0 4.0 0.00 0.00 0.00 92 906.9
20260904063055 71 254 1.0 4.0 0.00 0.00 0.00 92 906.9
20260904062857 71 288 1.0 6.0 0.00 0.00 0.00 92 906.8
20260904062555 71 277 1.0 7.0 0.00 0.00 0.00 92 906.9
20260904062256 71 178 1.0 7.0 0.00 0.00 0.00 92 906.9
20260904062055 71 290 3.0 7.0 0.00 0.00 0.00 92 906.9
20260904061656 71 280 2.0 7.0 0.00 0.00 0.00 93 906.9
20260904061555 71 293 2.0 7.0 0.00 0.00 0.00 93 906.8
20260904061057 71 265 2.0 6.0 0.00 0.00 0.00 93 906.8
20260904061055 71 269 2.0 6.0 0.00 0.00 0.00 93 906.8
20260904060555 71 229 3.0 6.0 0.00 0.00 0.00 92 906.9
20260904060456 71 257 3.0 6.0 0.00 0.00 0.00 92 906.8
20260904060055 72 249 3.0 5.0 0.00 0.00 0.00 92 906.8
20260904055856 72 264 1.0 4.0 0.00 0.00 0.00 92 906.8
20260904055555 72 291 1.0 4.0 0.00 0.00 0.00 93 906.9
20260904055256 71 263 3.0 7.0 0.00 0.00 0.00 92 906.8
20260904055055 71 281 3.0 7.0 0.00 0.00 0.00 93 906.9
20260904054656 71 258 4.0 7.0 0.00 0.00 0.00 93 906.8
20260904054555 70 238 4.0 9.0 0.00 0.00 0.00 92 906.8
20260904054058 71 265 4.0 10.0 0.00 0.00 0.00 91 906.9
20260904054056 71 258 4.0 10.0 0.00 0.00 0.00 91 906.9
20260904053557 71 215 6.0 10.0 0.00 0.00 0.00 91 906.9
20260904053456 71 221 6.0 10.0 0.00 0.00 0.00 90 906.9
20260904053055 71 275 0.0 6.0 0.00 0.00 0.00 92 906.9
20260904052856 71 259 1.0 7.0 0.00 0.00 0.00 92 906.9
20260904052555 71 219 3.0 7.0 0.00 0.00 0.00 93 906.9
20260904052256 71 289 3.0 7.0 0.00 0.00 0.00 93 906.9
20260904052055 71 219 3.0 7.0 0.00 0.00 0.00 93 906.9
20260904051656 71 240 3.0 5.0 0.00 0.00 0.00 92 906.9
20260904051555 71 262 4.0 5.0 0.00 0.00 0.00 92 907.0
20260904051056 71 292 2.0 4.0 0.00 0.00 0.00 92 907.0
20260904050456 71 258 3.0 6.0 0.00 0.00 0.00 91 907.1
20260904050055 72 221 1.0 5.0 0.00 0.00 0.00 91 907.1
20260904045856 72 204 5.0 8.0 0.00 0.00 0.00 92 907.1
20260904045555 71 237 1.0 5.0 0.00 0.00 0.00 92 907.2
20260904045256 71 231 4.0 5.0 0.00 0.00 0.00 91 907.1
20260904045056 71 266 3.0 5.0 0.00 0.00 0.00 91 907.2
20260904044656 72 296 1.0 5.0 0.00 0.00 0.00 92 907.2
20260904044554 71 256 0.0 4.0 0.00 0.00 0.00 92 907.2
20260904044056 71 225 3.0 8.0 0.00 0.00 0.00 92 907.2
20260904044054 71 241 3.0 8.0 0.00 0.00 0.00 92 907.2
20260904043554 71 240 4.0 8.0 0.00 0.00 0.00 91 907.3
20260904043456 71 241 5.0 8.0 0.00 0.00 0.00 92 907.3
20260904043054 72 231 4.0 7.0 0.00 0.00 0.00 91 907.3
20260904042855 71 182 1.0 6.0 0.00 0.00 0.00 92 907.3
20260904042554 71 38 3.0 6.0 0.00 0.00 0.00 92 907.4
20260904042256 71 240 1.0 3.0 0.00 0.00 0.00 91 907.4
20260904042054 71 231 2.0 7.0 0.00 0.00 0.00 91 907.4
20260904041656 71 259 3.0 7.0 0.00 0.00 0.00 90 907.4
20260904041554 72 193 3.0 7.0 0.00 0.00 0.00 90 907.4
20260904041056 72 293 4.0 7.0 0.00 0.00 0.00 91 907.4
20260904041054 72 281 4.0 7.0 0.00 0.00 0.00 91 907.3
20260904040554 72 247 3.0 6.0 0.00 0.00 0.00 91 907.4
20260904040455 72 212 3.0 5.0 0.00 0.00 0.00 91 907.4
20260904040054 72 238 1.0 5.0 0.00 0.00 0.00 91 907.4
20260904035855 72 283 2.0 5.0 0.00 0.00 0.00 91 907.4
20260904035554 71 244 3.0 5.0 0.00 0.00 0.00 92 907.4
20260904035054 71 282 5.0 7.0 0.00 0.00 0.00 92 907.4
20260904030554 70 268 0.0 4.0 0.00 0.00 0.00 93 907.7
20260904030054 70 267 1.0 3.0 0.00 0.00 0.00 94 907.5
20260904025855 70 238 0.0 2.0 0.00 0.00 0.00 93 907.5
20260904025554 70 260 3.0 6.0 0.00 0.00 0.00 94 907.5
20260904025255 70 291 3.0 5.0 0.00 0.00 0.00 93 907.5
20260904025053 70 268 2.0 5.0 0.00 0.00 0.00 93 907.5
20260904024655 69 277 1.0 6.0 0.00 0.00 0.00 94 907.6
20260904024553 69 258 2.0 6.0 0.00 0.00 0.00 94 907.6
20260904024055 70 270 2.0 6.0 0.00 0.00 0.00 93 907.6
20260904024053 70 268 2.0 6.0 0.00 0.00 0.00 93 907.6
20260904023553 70 218 3.0 6.0 0.00 0.00 0.00 92 907.6
20260904023455 70 233 4.0 6.0 0.00 0.00 0.00 92 907.6
20260904023053 70 215 2.0 6.0 0.00 0.00 0.00 92 907.7
20260904022855 70 233 3.0 6.0 0.00 0.00 0.00 91 907.7
20260904022553 70 115 3.0 6.0 0.00 0.00 0.00 92 907.6
20260904022255 71 264 2.0 6.0 0.00 0.00 0.00 92 907.5
20260904022053 71 258 1.0 4.0 0.00 0.00 0.00 93 907.6
20260904021654 70 280 1.0 4.0 0.00 0.00 0.00 92 907.6
20260904020553 71 206 1.0 3.0 0.00 0.00 0.00 90 907.4
20260904020454 71 204 0.0 2.0 0.00 0.00 0.00 91 907.4
20260904020053 71 177 0.0 1.0 0.00 0.00 0.00 91 907.3
20260904015854 71 270 0.0 1.0 0.00 0.00 0.00 90 907.3
20260904015553 71 58 0.0 1.0 0.00 0.00 0.00 90 907.3
20260904015254 71 253 2.0 4.0 0.00 0.00 0.00 92 907.3
20260904015053 71 286 1.0 4.0 0.00 0.00 0.00 91 907.3
20260904014654 71 206 1.0 5.0 0.00 0.00 0.00 91 907.2
20260904014553 71 262 1.0 4.0 0.00 0.00 0.00 91 907.3
20260904014055 72 211 0.0 0.0 0.00 0.00 0.00 91 907.2
20260904014053 72 198 0.0 0.0 0.00 0.00 0.00 91 907.2
20260904013553 72 112 0.0 3.0 0.00 0.00 0.00 92 907.3
20260904013454 72 191 1.0 2.0 0.00 0.00 0.00 92 907.3
20260904013053 72 93 0.0 3.0 0.00 0.00 0.00 90 907.3
20260904012854 72 150 0.0 3.0 0.00 0.00 0.00 91 907.3
20260904012255 72 83 1.0 3.0 0.00 0.00 0.00 90 907.3
20260904012053 72 129 0.0 2.0 0.00 0.00 0.00 91 907.3
20260904011654 71 295 0.0 0.0 0.00 0.00 0.00 90 907.2
20260904011553 72 212 1.0 5.0 0.00 0.00 0.00 90 907.2
20260904011054 72 202 0.0 2.0 0.00 0.00 0.00 91 907.2
20260904010554 70 200 0.0 0.0 0.00 0.00 0.00 92 907.1
20260904010454 70 263 1.0 3.0 0.00 0.00 0.00 92 907.2
20260904010053 70 267 1.0 4.0 0.00 0.00 0.00 92 907.1
20260904005856 70 245 1.0 4.0 0.00 0.00 0.00 92 907.1
20260904005552 69 219 1.0 3.0 0.00 0.00 0.00 92 907.0
20260904005254 69 184 1.0 3.0 0.00 0.00 0.00 92 907.1
20260904005053 69 238 0.0 3.0 0.00 0.00 0.00 93 907.1
20260904004654 70 272 0.0 3.0 0.00 0.00 0.00 92 907.0
20260904004553 70 238 1.0 4.0 0.00 0.00 0.00 91 907.0
20260904004054 71 225 2.0 5.0 0.00 0.00 0.00 92 906.9
20260904003552 71 207 3.0 5.0 0.00 0.00 0.00 92 906.9
20260904003454 71 245 3.0 5.0 0.00 0.00 0.00 92 906.8
20260904003052 71 243 2.0 6.0 0.00 0.00 0.00 92 906.8
20260904002854 71 195 2.0 6.0 0.00 0.00 0.00 92 906.8
20260904002553 70 197 3.0 6.0 0.00 0.00 0.00 92 906.8
20260904002254 70 213 3.0 6.0 0.00 0.00 0.00 92 906.8
20260904002052 70 227 3.0 6.0 0.00 0.00 0.00 92 906.8
20260904001654 70 170 3.0 6.0 0.00 0.00 0.00 92 906.8
20260904001552 70 215 3.0 6.0 0.00 0.00 0.00 92 906.7
20260904001054 70 184 3.0 6.0 0.00 0.00 0.00 93 906.7
20260904001052 70 188 3.0 6.0 0.00 0.00 0.00 93 906.7
20260904000552 69 180 4.0 5.0 0.00 0.00 0.00 93 906.6
20260904000052 69 219 2.0 5.0 0.00 0.00 0.00 93 906.6
20260903235853 68 222 0.0 3.0 0.00 0.00 0.00 93 906.6
20260903235552 68 218 2.0 4.0 0.00 0.00 0.00 94 906.6
20260903235254 68 197 3.0 4.0 0.00 0.00 0.00 93 906.6
20260903235052 68 262 2.0 4.0 0.00 0.00 0.00 93 906.6
20260903234653 68 262 2.0 4.0 0.00 0.00 0.00 94 906.5
20260903234552 68 272 2.0 3.0 0.00 0.00 0.00 94 906.6
20260903234054 68 270 1.0 3.0 0.00 0.00 0.00 93 906.6
20260903234052 68 275 1.0 3.0 0.00 0.00 0.00 93 906.5
20260903233552 68 233 2.0 4.0 0.00 0.00 0.00 93 906.5
20260903233453 68 252 2.0 4.0 0.00 0.00 0.00 93 906.5
20260903233052 68 265 2.0 4.0 0.00 0.00 0.00 94 906.4
20260903232853 68 217 2.0 4.0 0.00 0.00 0.00 93 906.3
20260903232552 68 215 2.0 4.0 0.00 0.00 0.00 93 906.3
20260903232254 68 219 3.0 4.0 0.00 0.00 0.00 93 906.2
20260903232052 68 226 2.0 3.0 0.00 0.00 0.00 94 906.3
20260903231653 68 247 2.0 4.0 0.00 0.00 0.00 94 906.2
20260903231552 68 231 2.0 4.0 0.00 0.00 0.00 94 906.2
20260903231054 67 257 2.0 4.0 0.00 0.00 0.00 94 906.2
20260903231052 67 262 2.0 4.0 0.00 0.00 0.00 94 906.1
20260903230552 67 270 2.0 4.0 0.00 0.00 0.00 94 906.1
20260903230453 67 265 2.0 4.0 0.00 0.00 0.00 94 906.0
20260903230052 67 257 2.0 4.0 0.00 0.00 0.00 94 905.9
20260903225853 67 230 2.0 4.0 0.00 0.00 0.00 94 905.9
20260903225552 67 269 1.0 3.0 0.00 0.00 0.00 94 905.9
20260903225253 67 261 3.0 4.0 0.00 0.00 0.00 94 905.9
20260903225052 67 258 3.0 4.0 0.00 0.00 0.00 94 905.8
20260903224653 67 261 3.0 4.0 0.00 0.00 0.00 94 905.8
20260903224552 67 250 2.0 4.0 0.00 0.00 0.00 94 905.8
20260903224053 67 234 2.0 4.0 0.00 0.00 0.00 94 905.8
20260903224051 67 225 2.0 4.0 0.00 0.00 0.00 94 905.8
20260903223552 67 228 3.0 5.0 0.00 0.00 0.00 94 905.7
20260903223453 67 224 3.0 5.0 0.00 0.00 0.00 94 905.7
20260903223051 67 225 3.0 5.0 0.00 0.00 0.00 94 905.7
20260903222853 67 245 3.0 4.0 0.00 0.00 0.00 94 905.6
20260903222551 67 258 2.0 4.0 0.00 0.00 0.00 94 905.5
20260903222253 67 223 3.0 4.0 0.00 0.00 0.00 94 905.6
20260903222052 67 256 2.0 4.0 0.00 0.00 0.00 94 905.6
20260903221653 67 202 3.0 4.0 0.00 0.00 0.00 94 905.5
20260903221551 67 206 2.0 4.0 0.00 0.00 0.00 94 905.6
20260903221053 67 234 2.0 3.0 0.00 0.00 0.00 94 905.5
20260903221051 67 230 2.0 3.0 0.00 0.00 0.00 94 905.5
20260903220551 67 201 2.0 3.0 0.00 0.00 0.00 94 905.5
20260903220453 67 212 2.0 3.0 0.00 0.00 0.00 94 905.5
20260903215853 67 204 1.0 2.0 0.00 0.00 0.00 94 905.5
20260903215551 67 258 1.0 2.0 0.00 0.00 0.00 94 905.5
20260903215252 67 223 1.0 2.0 0.00 0.00 0.00 94 905.5
20260903215052 67 203 1.0 2.0 0.00 0.00 0.00 94 905.5
20260903214652 67 207 1.0 2.0 0.00 0.00 0.00 94 905.4
20260903214551 67 211 1.0 2.0 0.00 0.00 0.00 94 905.3
20260903214053 67 269 0.0 2.0 0.00 0.00 0.00 94 905.4
20260903214051 67 270 0.0 2.0 0.00 0.00 0.00 94 905.3
20260903213551 67 207 0.0 2.0 0.00 0.00 0.00 94 905.3
20260903213452 67 140 1.0 2.0 0.00 0.00 0.00 94 905.3
20260903213051 67 190 1.0 2.0 0.00 0.00 0.00 94 905.3
20260903212852 67 228 1.0 2.0 0.00 0.00 0.00 94 905.3
20260903212551 67 203 1.0 2.0 0.00 0.00 0.00 94 905.3
20260903212252 67 203 1.0 2.0 0.00 0.00 0.00 94 905.3
20260903212051 67 212 0.0 2.0 0.00 0.00 0.00 94 905.3
20260903211652 67 199 2.0 2.0 0.00 0.00 0.00 94 905.3
20260903211551 67 204 1.0 2.0 0.00 0.00 0.00 94 905.2
20260903211052 67 204 1.0 1.0 0.00 0.00 0.00 94 905.2
20260903210551 67 263 0.0 0.0 0.00 0.00 0.00 95 905.2
20260903210452 67 265 0.0 0.0 0.00 0.00 0.00 95 905.2
20260903210051 67 261 0.0 0.0 0.00 0.00 0.00 95 905.2
20260903205852 67 247 0.0 0.0 0.00 0.00 0.00 95 905.2
20260903205551 67 300 0.0 1.0 0.00 0.00 0.00 95 905.2
20260903205051 67 312 0.0 3.0 0.00 0.00 0.00 95 905.1
20260903204652 67 318 2.0 5.0 0.00 0.00 0.00 94 905.1
20260903204551 67 297 2.0 5.0 0.00 0.00 0.00 94 905.1
20260903204053 67 326 2.0 5.0 0.00 0.00 0.00 94 905.0
20260903204051 67 322 2.0 5.0 0.00 0.00 0.00 94 905.1
20260903203551 67 281 3.0 5.0 0.00 0.00 0.00 94 905.1
20260903203452 67 277 3.0 5.0 0.00 0.00 0.00 94 905.1
20260903203051 67 306 3.0 5.0 0.00 0.00 0.00 94 905.1
20260903202852 67 314 2.0 4.0 0.00 0.00 0.00 94 905.1
20260903202550 67 322 2.0 4.0 0.00 0.00 0.00 94 905.0
20260903202254 67 295 0.0 0.0 0.00 0.00 0.00 94 905.0
20260903202051 67 303 0.0 2.0 0.00 0.00 0.00 94 905.0
20260903201653 67 306 2.0 4.0 0.00 0.00 0.00 94 905.0
20260903201550 67 291 2.0 4.0 0.00 0.00 0.00 94 905.0
20260903201052 67 303 3.0 4.0 0.00 0.00 0.00 94 904.9
20260903201050 67 287 3.0 4.0 0.00 0.00 0.00 94 904.9
20260903200550 67 360 2.0 8.0 0.00 0.00 0.00 94 905.0
20260903200452 67 318 2.0 8.0 0.00 0.00 0.00 95 905.0
20260903200051 66 354 3.0 8.0 0.00 0.00 0.00 94 905.1
20260903195852 66 2 5.0 8.0 0.00 0.00 0.00 94 905.1
20260903195550 67 329 4.0 7.0 0.00 0.00 0.00 94 905.0
20260903195252 67 323 3.0 6.0 0.00 0.00 0.00 94 905.0
20260903195050 67 318 2.0 7.0 0.00 0.00 0.00 94 904.9
20260903194651 67 327 2.0 7.0 0.00 0.00 0.00 94 905.0
20260903194550 67 313 3.0 7.0 0.00 0.00 0.00 94 905.0
20260903194052 67 306 3.0 8.0 0.00 0.00 0.00 95 905.0
20260903194050 67 302 3.0 8.0 0.00 0.00 0.00 95 905.0
20260903193550 67 301 3.0 9.0 0.00 0.00 0.00 95 905.0
20260903193451 66 344 4.0 9.0 0.00 0.00 0.00 95 905.0
20260903193050 66 24 5.0 9.0 0.00 0.00 0.00 95 904.9
20260903192851 66 345 5.0 8.0 0.00 0.00 0.00 95 905.0
20260903192550 65 360 6.0 9.0 0.00 0.00 0.00 95 905.0
20260903192251 65 28 4.0 9.0 0.00 0.00 0.00 95 905.0
20260903192050 65 342 5.0 9.0 0.00 0.00 0.00 95 905.0
20260903191651 65 269 5.0 10.0 0.00 0.00 0.00 96 905.0
20260903191550 65 345 5.0 11.0 0.00 0.00 0.00 96 904.9
20260903191052 65 322 6.0 12.0 0.00 0.00 0.00 96 904.9
20260903191050 65 302 6.0 12.0 0.00 0.00 0.00 96 904.9
20260903190550 65 307 7.0 14.0 0.00 0.00 0.00 96 904.8
20260903190451 65 285 5.0 14.0 0.00 0.00 0.00 96 904.9
20260903190050 65 356 8.0 14.0 0.00 0.00 0.00 96 904.9
20260903185851 65 329 5.0 9.0 0.00 0.00 0.00 96 904.9
20260903185550 65 2 5.0 9.0 0.00 0.00 0.00 96 904.8
20260903185251 65 323 5.0 9.0 0.00 0.00 0.00 96 904.7
20260903185050 65 360 4.0 9.0 0.00 0.00 0.00 96 904.7
20260903184651 65 6 5.0 10.0 0.00 0.00 0.00 96 904.8
20260903184550 65 353 5.0 10.0 0.00 0.00 0.00 96 904.8
20260903184059 65 350 6.0 10.0 0.00 0.00 0.00 96 904.7
20260903184051 65 7 6.0 10.0 0.00 0.00 0.00 96 904.7
20260903183550 65 353 5.0 11.0 0.00 0.00 0.00 96 904.8
20260903183451 65 290 6.0 11.0 0.00 0.00 0.00 96 904.8
20260903183050 65 280 5.0 11.0 0.00 0.00 0.00 96 904.8
20260903182851 65 292 7.0 11.0 0.00 0.00 0.00 96 904.7
20260903182550 65 319 3.0 11.0 0.00 0.00 0.00 96 904.7
20260903182251 65 314 6.0 11.0 0.00 0.00 0.00 96 904.8
20260903182049 65 313 7.0 11.0 0.00 0.00 0.00 96 904.7
20260903181651 65 360 5.0 9.0 0.00 0.00 0.00 96 904.8
20260903181549 65 323 3.0 9.0 0.00 0.00 0.00 96 904.8
20260903181051 65 314 5.0 11.0 0.00 0.00 0.00 96 904.8
20260903180549 65 6 6.0 11.0 0.00 0.00 0.00 96 904.8
20260903180451 65 348 5.0 11.0 0.00 0.00 0.00 96 904.9
20260903180050 65 330 5.0 11.0 0.00 0.00 0.00 96 904.8
20260903175851 65 319 4.0 9.0 0.00 0.00 0.00 96 904.8
20260903175549 65 343 4.0 9.0 0.00 0.00 0.00 96 904.8
20260903175251 66 304 5.0 9.0 0.00 0.00 0.00 96 904.9
20260903175049 66 342 4.0 9.0 0.00 0.00 0.00 96 904.8
20260903174651 65 21 5.0 10.0 0.00 0.00 0.00 96 904.8
20260903174549 65 296 5.0 10.0 0.00 0.00 0.00 96 904.8
20260903174051 65 328 5.0 10.0 0.00 0.00 0.00 96 904.8
20260903174049 65 4 5.0 10.0 0.00 0.00 0.00 96 904.8
20260903173549 65 335 4.0 8.0 0.00 0.00 0.00 96 904.9
20260903173450 65 295 4.0 8.0 0.00 0.00 0.00 96 904.9
20260903173049 66 121 2.0 8.0 0.00 0.00 0.00 96 904.8
20260903172850 66 35 3.0 8.0 0.00 0.00 0.00 96 905.0
20260903172549 66 344 3.0 8.0 0.00 0.00 0.00 96 904.9
20260903172251 66 327 2.0 11.0 0.00 0.00 0.00 96 904.9
20260903172049 66 310 3.0 11.0 0.00 0.00 0.00 96 904.9
20260903171650 66 245 4.0 11.0 0.00 0.00 0.00 96 904.9
20260903171549 66 13 3.0 11.0 0.00 0.00 0.00 96 904.9
20260903171051 66 286 3.0 9.0 0.00 0.00 0.00 96 904.9
20260903171049 66 312 3.0 9.0 0.00 0.00 0.00 96 904.9
20260903170549 66 308 3.0 9.0 0.00 0.00 0.00 96 904.9
20260903170450 66 266 4.0 9.0 0.00 0.00 0.00 96 904.9
20260903170049 66 346 3.0 8.0 0.00 0.00 0.00 96 904.8
20260903165850 66 300 3.0 11.0 0.00 0.00 0.00 96 904.8
20260903165549 66 28 3.0 11.0 0.00 0.00 0.00 96 904.8
20260903165250 66 301 2.0 10.0 0.00 0.00 0.00 96 904.8
20260903165049 66 154 3.0 10.0 0.00 0.00 0.00 96 904.8
20260903164650 66 266 3.0 10.0 0.00 0.00 0.00 96 904.8
20260903164549 66 140 3.0 10.0 0.00 0.00 0.00 96 904.9
20260903164050 66 267 1.0 5.0 0.00 0.00 0.00 96 904.9
20260903163549 66 353 3.0 8.0 0.00 0.00 0.00 96 904.9
20260903163450 66 156 2.0 9.0 0.00 0.00 0.00 96 904.9
20260903163049 66 165 2.0 11.0 0.00 0.00 0.00 96 904.9
20260903162850 66 177 3.0 11.0 0.00 0.00 0.00 96 904.9
20260903162549 66 80 4.0 11.0 0.00 0.00 0.00 96 904.9
20260903162250 66 266 6.0 11.0 0.00 0.00 0.00 96 904.9
20260903162049 66 284 2.0 9.0 0.00 0.00 0.00 96 904.8
20260903161650 66 325 3.0 9.0 0.00 0.00 0.00 96 904.9
20260903161549 66 347 3.0 9.0 0.00 0.00 0.00 96 904.9
20260903161050 66 315 2.0 9.0 0.00 0.00 0.00 96 904.9
20260903161048 66 280 2.0 9.0 0.00 0.00 0.00 96 904.9
20260903160548 66 278 1.0 6.0 0.00 0.00 0.00 96 904.9
20260903160450 66 93 0.0 2.0 0.00 0.00 0.00 96 905.0
20260903160049 66 18 3.0 8.0 0.00 0.00 0.00 96 904.9
20260903155850 66 330 3.0 8.0 0.00 0.00 0.00 96 904.9
20260903155548 66 346 5.0 12.0 0.00 0.00 0.00 96 904.9
20260903155250 66 17 1.0 6.0 0.00 0.00 0.00 96 904.9
20260903155048 66 8 4.0 8.0 0.00 0.00 0.00 96 904.9
20260903154650 66 64 1.0 6.0 0.00 0.00 0.00 96 904.9
20260903154548 66 63 3.0 12.0 0.00 0.00 0.00 96 904.9
20260903154050 66 35 6.0 11.0 0.00 0.00 0.00 96 904.9
20260903154048 66 39 6.0 11.0 0.00 0.00 0.00 96 904.9
20260903153549 66 344 6.0 12.0 0.00 0.00 0.00 96 904.9
20260903153449 66 24 6.0 12.0 0.00 0.00 0.00 96 904.9
20260903153048 66 360 7.0 12.0 0.00 0.00 0.00 96 905.0
20260903152849 66 32 7.0 12.0 0.00 0.00 0.00 96 904.9
20260903152548 66 18 5.0 9.0 0.00 0.00 0.00 96 905.0
20260903152249 66 11 4.0 9.0 0.00 0.00 0.00 96 904.9
20260903152048 66 360 4.0 9.0 0.00 0.00 0.00 96 905.0
20260903151649 66 3 3.0 8.0 0.00 0.00 0.00 96 904.9
20260903151548 66 19 1.0 7.0 0.00 0.00 0.00 96 905.0
20260903151050 66 26 7.0 12.0 0.00 0.00 0.00 96 904.9
20260903151048 66 32 7.0 12.0 0.00 0.00 0.00 96 904.9
20260903150548 66 16 6.0 13.0 0.00 0.00 0.00 96 904.9
20260903150450 66 73 6.0 13.0 0.00 0.00 0.00 96 905.0
20260903150048 66 355 8.0 13.0 0.00 0.00 0.00 96 904.9
20260903145849 66 9 8.0 13.0 0.00 0.00 0.00 96 904.9
20260903145548 66 4 6.0 12.0 0.00 0.00 0.00 96 904.8
20260903145249 66 15 1.0 10.0 0.00 0.00 0.00 97 904.8
20260903145048 66 360 6.0 14.0 0.00 0.00 0.00 97 904.8
20260903144651 66 34 0.0 0.0 0.00 0.00 0.00 97 904.9
20260903144548 66 30 3.0 10.0 0.00 0.00 0.00 97 904.9
20260903142849 66 302 5.0 11.0 0.00 0.00 0.00 97 904.9
20260903142251 66 93 0.0 0.0 0.00 0.00 0.00 97 904.9
20260903142048 66 54 3.0 10.0 0.00 0.00 0.00 97 904.9
20260903141649 67 253 5.0 10.0 0.00 0.00 0.00 97 904.9
20260903141548 67 329 5.0 10.0 0.00 0.00 0.00 97 904.8
20260903141049 67 345 3.0 11.0 0.00 0.00 0.00 97 904.8
20260903141047 67 356 3.0 11.0 0.00 0.00 0.00 97 904.8
20260903140548 67 322 3.0 11.0 0.00 0.00 0.00 97 904.7
20260903140449 67 7 4.0 12.0 0.00 0.00 0.00 97 904.8
20260903140047 67 136 4.0 12.0 0.00 0.00 0.00 97 904.7
20260903135547 67 328 5.0 12.0 0.00 0.00 0.00 97 904.8
20260903135249 67 38 4.0 12.0 0.00 0.00 0.00 97 904.6
20260903135047 67 360 5.0 12.0 0.00 0.00 0.00 97 904.7
20260903134649 67 11 6.0 14.0 0.00 0.00 0.00 97 904.8
20260903134547 67 314 6.0 14.0 0.00 0.00 0.00 97 904.7
20260903134049 67 8 7.0 14.0 0.00 0.00 0.00 97 904.8
20260903134047 67 17 7.0 14.0 0.00 0.00 0.00 97 904.7
20260903133547 67 32 4.0 11.0 0.00 0.00 0.00 97 904.7
20260903133449 67 12 1.0 8.0 0.00 0.00 0.00 97 904.6
20260903133047 67 21 7.0 12.0 0.00 0.00 0.00 97 904.6
20260903132848 67 9 7.0 12.0 0.00 0.00 0.00 97 904.5
20260903132547 66 4 0.0 9.0 0.00 0.00 0.00 98 904.5
20260903131547 67 24 8.0 15.0 0.00 0.00 0.00 97 904.3
20260903131049 67 1 9.0 15.0 0.00 0.00 0.00 97 904.2
20260903131047 67 360 9.0 15.0 0.00 0.00 0.00 97 904.2
20260903130547 67 21 8.0 15.0 0.00 0.00 0.00 97 904.2
20260903130448 67 324 7.0 15.0 0.00 0.00 0.00 97 904.3
20260903130047 67 355 6.0 12.0 0.00 0.00 0.00 97 904.1
20260903125848 67 302 8.0 13.0 0.00 0.00 0.00 97 904.1
20260903125547 67 347 7.0 12.0 0.00 0.00 0.00 97 904.0
20260903125047 67 7 8.0 12.0 0.00 0.00 0.00 97 904.1
20260903124648 67 42 7.0 16.0 0.00 0.00 0.00 97 904.0
20260903124547 67 2 8.0 16.0 0.00 0.00 0.00 97 904.0
20260903124049 67 24 9.0 17.0 0.00 0.00 0.00 97 904.0
20260903124047 67 20 9.0 17.0 0.00 0.00 0.00 97 903.9
20260903123547 67 316 9.0 17.0 0.00 0.00 0.00 97 903.8
20260903123448 67 352 8.0 13.0 0.00 0.00 0.00 97 903.7
20260903123047 67 37 1.0 10.0 0.00 0.00 0.00 98 903.9
20260903122848 67 311 4.0 11.0 0.00 0.00 0.00 97 903.9
20260903122547 67 72 6.0 10.0 0.00 0.00 0.00 97 903.9
20260903122248 67 2 5.0 10.0 0.00 0.00 0.00 97 903.9
20260903122047 67 51 3.0 7.0 0.00 0.00 0.00 97 904.0
20260903121648 67 125 2.0 5.0 0.00 0.00 0.00 97 904.0
20260903121547 67 109 1.0 5.0 0.00 0.00 0.00 98 903.9
20260903121048 67 268 3.0 10.0 0.00 0.00 0.00 97 903.9
20260903120546 67 248 5.0 10.0 0.00 0.00 0.00 97 903.9
20260903120047 67 4 5.0 13.0 0.01 0.01 0.00 97 903.9
20260903115848 67 29 5.0 10.0 0.01 0.01 0.00 97 903.8
20260903115546 67 15 3.0 9.0 0.00 0.00 0.00 97 903.9
20260903115248 67 101 2.0 9.0 0.00 0.00 0.00 97 903.9
20260903115047 67 328 4.0 9.0 0.00 0.00 0.00 97 903.9
20260903114648 67 277 2.0 4.0 0.00 0.00 0.00 97 903.9
20260903114546 67 29 1.0 4.0 0.00 0.00 0.00 97 903.9
20260903114048 67 15 5.0 9.0 0.00 0.00 0.00 97 904.0
20260903114046 67 34 5.0 9.0 0.00 0.00 0.00 97 903.9
20260903113546 67 21 4.0 9.0 0.00 0.00 0.00 97 904.0
20260903113448 67 27 4.0 9.0 0.00 0.00 0.00 97 904.0
20260903113046 67 24 4.0 8.0 0.00 0.00 0.00 97 903.9
20260903112848 67 71 2.0 8.0 0.00 0.00 0.00 97 903.9
20260903112547 67 63 3.0 8.0 0.00 0.00 0.00 97 903.9
20260903112248 68 7 2.0 7.0 0.00 0.00 0.00 97 903.9
20260903112046 68 40 2.0 7.0 0.00 0.00 0.00 97 903.9
20260903111648 68 15 3.0 7.0 0.00 0.00 0.00 97 903.8
20260903111546 68 100 2.0 7.0 0.00 0.00 0.00 97 903.7
20260903111047 68 25 2.0 7.0 0.00 0.00 0.00 97 903.8
20260903110546 68 294 3.0 6.0 0.00 0.00 0.00 97 903.7
20260903110447 68 97 3.0 6.0 0.00 0.00 0.00 97 903.7
20260903110046 68 6 1.0 5.0 0.00 0.00 0.00 97 903.7
20260903105847 68 277 2.0 6.0 0.00 0.00 0.00 97 903.7
20260903105546 68 332 3.0 6.0 0.00 0.00 0.00 97 903.6
20260903105247 68 310 2.0 6.0 0.00 0.00 0.00 97 903.7
20260903105046 68 317 2.0 8.0 0.00 0.00 0.00 97 903.6
20260903104647 68 64 2.0 8.0 0.00 0.00 0.00 97 903.7
20260903104546 68 112 2.0 8.0 0.00 0.00 0.00 97 903.6
20260903104047 68 134 2.0 7.0 0.00 0.00 0.00 97 903.6
20260903103546 68 48 1.0 8.0 0.00 0.00 0.00 97 903.6
20260903103450 68 66 2.0 8.0 0.00 0.00 0.00 97 903.6
20260903103046 68 121 3.0 8.0 0.00 0.00 0.00 97 903.5
20260903102847 68 221 3.0 8.0 0.00 0.00 0.00 97 903.5
20260903102546 68 131 3.0 6.0 0.00 0.00 0.00 97 903.5
20260903102248 67 145 0.0 0.0 0.00 0.00 0.00 97 903.4
20260903101546 68 195 4.0 10.0 0.01 0.01 0.00 96 903.3
20260903101047 68 66 2.0 10.0 0.00 0.00 0.00 96 903.4
20260903100546 68 124 3.0 4.0 0.00 0.00 0.00 96 903.4
20260903100447 68 122 2.0 4.0 0.00 0.00 0.00 96 903.4
20260903095847 68 42 0.0 6.0 0.00 0.00 0.00 96 903.3